SCP
0 0 0 0 0 0 0 0 0 0 0 0 0 0 0 0 0 0 0 1 1 1 1 1 0 0 0 0 1 1 1 1 1 1 1 1 1 0 0 0 0 0 0 0
0 0 0 0 0 0 0 0 0 0 0 0 0 0 0 0 0 0 0 1 1 1 1 0 0 0 0 0 1 1 1 1 1 1 1 1 1 1 0 0 0 0 0 0
0 0 0 0 0 0 0 0 0 0 0 0 0 0 0 0 0 0 0 0 1 1 0 0 0 0 0 0 0 0 1 1 1 1 1 1 1 1 1 1 0 0 0 0
0 0 0 0 0 0 0 0 0 0 0 0 0 0 0 0 0 0 0 0 0 0 0 0 0 0 0 0 0 0 0 1 1 1 2 2 1 1 1 1 1 1 0 0
0 0 0 0 0 0 0 0 0 0 0 0 0 0 0 0 0 0 0 0 0 0 0 0 0 0 0 0 1 1 0 0 1 1 2 2 2 1 1 1 1 1 1 1
0 0 0 0 0 0 0 0 0 0 0 0 0 0 0 0 0 0 0 0 0 0 0 0 0 0 0 1 1 1 1 0 0 1 1 2 2 2 2 1 1 2 1 1
0 0 0 0 0 0 0 0 0 0 0 0 0 0 0 0 0 0 0 0 0 0 0 0 0 0 0 0 1 1 1 0 0 0 1 1 2 2 2 2 1 1 1 1
0 0 0 0 0 0 0 0 0 0 0 0 0 0 0 0 0 0 0 0 0 0 0 0 0 0 0 0 0 0 0 0 0 0 0 1 1 2 2 1 1 1 0 0
0 0 0 0 0 0 0 0 0 0 0 0 0 0 0 0 0 0 0 0 0 0 0 0 0 0 0 0 0 0 0 0 0 0 0 0 1 1 1 1 0 0 0 0
0 0 0 0 0 0 0 0 0 0 0 0 0 0 0 0 0 0 0 0 0 0 0 0 0 0 0 0 0 0 0 0 0 0 0 0 0 0 0 0 0 0 0 0
0 0 0 0 0 0 0 0 0 0 0 0 0 0 0 0 0 0 0 0 0 0 0 0 0 0 0 0 0 0 0 0 0 0 0 0 0 0 0 0 0 0 0 0
0 0 0 0 0 0 0 0 0 0 0 0 0 0 0 0 0 0 0 0 0 0 0 0 0 0 0 0 0 0 0 0 0 0 0 0 0 0 0 0 0 0 0 0
0 0 0 0 0 0 0 0 0 0 0 0 0 0 0 0 0 0 0 0 0 0 0 0 0 0 0 0 0 0 0 0 0 0 0 0 0 0 0 0 0 0 0 0
0 0 0 0 0 0 0 0 0 0 0 0 0 0 0 0 0 0 0 0 0 0 0 0 0 0 0 0 0 0 0 0 0 0 0 0 0 0 0 0 0 0 0 0
0 0 0 0 0 0 0 0 0 0 0 0 0 0 0 0 0 0 0 0 0 0 0 0 0 0 0 0 0 0 0 0 0 0 0 0 0 0 0 0 0 0 0 0
0 0 0 0 0 0 0 0 0 0 0 0 0 0 0 0 0 0 0 0 0 0 0 0 0 0 0 0 0 0 0 0 0 0 0 0 0 0 0 0 0 0 0 0
0 0 0 0 0 0 0 0 0 0 0 0 0 0 0 0 0 0 0 0 0 0 0 0 0 0 0 0 0 0 0 0 0 0 0 0 0 0 0 0 0 0 0 0
0 0 0 0 0 0 0 0 0 0 0 0 0 0 0 0 0 0 0 0 0 0 0 0 0 0 0 0 0 0 0 0 0 0 0 0 0 0 0 0 0 0 0 0
0 0 0 0 0 0 0 0 0 0 0 0 0 0 0 0 0 0 0 0 0 0 0 0 0 0 0 0 0 0 0 0 0 0 0 0 0 0 0 0 0 0 0 0
0 0 0 0 0 0 0 0 0 0 0 0 0 0 0 0 0 0 0 0 0 0 0 0 0 0 0 0 0 0 0 0 0 0 0 0 0 0 0 0 0 0 0 0
0 0 0 0 0 0 0 0 0 0 0 0 0 0 0 0 0 0 0 0 0 0 0 0 0 0 0 0 0 0 0 0 0 0 0 0 0 0 0 0 0 0 0 0
0 0 0 0 0 0 0 0 0 0 0 0 0 0 0 0 0 0 0 0 0 0 0 0 0 0 0 0 0 0 0 0 0 0 0 0 0 0 0 0 0 0 0 0
0 0 0 0 0 0 0 0 0 0 0 0 0 0 0 0 0 0 0 0 0 0 0 0 0 0 0 0 0 0 0 0 0 0 0 0 0 0 0 0 0 0 0 0
0 0 0 0 0 0 0 0 0 0 0 0 0 0 0 0 0 0 0 0 0 0 0 0 0 0 0 0 0 0 0 0 0 0 0 0 0 0 0 0 0 0 0 0
0 0 0 0 0 0 0 0 0 0 0 0 0 0 0 0 0 0 0 0 0 0 0 0 0 0 0 0 0 0 0 0 0 0 0 0 0 0 0 0 0 0 0 0
0 0 0 0 0 0 0 0 0 0 0 0 0 0 0 0 0 0 0 0 0 0 0 0 0 0 0 0 0 0 0 0 0 0 0 0 0 0 0 0 0 0 0 0
Wind_Speed
5 5 4 3 1 2 2 3 2 1 0 1 3 4 3 3 3 4 4 3 3 2 1 0 0 0 1 1 2 2 2 1 1 1 1 1 1 1 1 2 3 3 3 3
4 5 3 1 2 3 2 2 1 0 1 1 2 4 5 4 5 5 5 4 4 2 1 1 1 0 1 0 1 1 2 1 1 1 1 1 1 1 2 2 3 3 4 4
6 3 2 2 3 2 1 1 2 2 1 2 2 4 4 4 4 4 5 5 4 3 3 2 2 2 1 1 1 1 1 2 1 1 1 1 1 1 2 3 3 4 4 3
5 3 2 2 2 2 0 0 1 2 2 1 2 3 3 4 4 4 5 4 4 3 3 2 2 2 2 2 2 2 1 1 1 1 1 0 1 2 3 3 3 4 4 4
3 3 3 2 2 2 1 0 1 2 2 1 2 3 2 3 5 4 4 4 3 3 2 3 3 3 2 2 2 2 1 1 1 1 1 2 2 3 3 3 4 4 3 4
3 2 3 2 1 1 1 1 2 2 2 3 3 4 3 3 4 3 3 3 2 2 2 2 2 2 2 2 1 2 2 2 2 1 1 2 3 3 4 4 4 4 3 3
2 2 2 2 0 1 0 1 1 2 2 1 1 3 5 1 2 3 3 2 2 1 2 2 2 2 2 2 2 2 2 3 3 2 2 2 3 3 4 4 4 4 3 4
1 1 2 3 2 1 0 1 1 1 1 1 1 5 3 0 1 2 2 2 2 2 1 1 2 2 2 2 2 2 2 3 3 3 3 3 3 3 3 4 4 4 4 4
1 0 1 2 2 1 2 1 1 1 1 2 3 4 5 2 2 2 1 2 2 2 2 2 2 2 2 2 2 2 2 2 3 3 3 4 4 4 4 4 4 4 4 4
0 1 1 1 0 2 1 2 2 2 2 3 3 4 4 4 4 3 2 2 3 2 2 2 2 2 2 2 2 2 2 2 3 3 3 3 4 4 4 4 5 5 5 5
1 1 0 0 1 1 2 2 2 1 1 2 3 3 2 4 3 3 2 2 3 3 2 2 2 2 2 2 2 2 2 3 3 3 3 4 4 4 4 4 5 5 5 5
0 1 1 2 1 2 2 3 4 3 2 2 3 5 0 3 2 3 3 3 3 3 3 2 2 2 2 2 2 2 2 3 3 4 4 4 4 4 4 4 5 5 6 6
1 1 1 1 2 1 2 3 3 1 2 3 4 6 2 2 2 3 4 4 3 3 3 3 2 2 2 3 3 3 3 3 3 3 3 4 4 4 5 5 5 5 6 6
1 2 4 4 1 2 4 5 6 5 5 6 10 11 8 7 6 6 6 5 5 4 4 3 3 3 3 3 3 3 3 3 3 3 3 4 4 4 5 5 5 5 6 6
1 2 3 5 4 4 6 7 9 12 10 10 10 11 15 11 8 8 7 6 5 5 4 4 4 4 3 3 3 2 3 3 2 3 3 4 4 4 5 5 5 5 6 6
1 2 1 3 2 4 7 11 13 14 13 15 15 17 15 11 8 7 7 6 6 6 6 5 5 4 4 4 3 3 3 3 2 3 3 4 4 4 5 5 5 6 6 6
3 3 2 3 3 4 9 11 14 11 12 11 15 14 8 6 7 7 6 6 7 7 7 6 6 5 4 3 3 3 3 2 2 3 3 4 4 4 5 5 6 6 6 6
5 4 2 2 1 8 4 1 6 10 10 13 13 12 10 9 7 6 7 8 8 7 7 6 5 4 3 3 2 2 2 2 2 3 3 4 4 5 5 5 6 6 6 6
5 5 3 2 4 10 8 4 6 8 9 11 15 15 12 7 6 8 8 9 8 7 6 5 5 4 3 2 2 2 2 2 2 3 4 4 5 5 6 6 7 6 6 7
3 3 3 4 5 8 4 3 3 3 7 7 11 12 9 4 5 6 3 6 6 6 4 4 3 3 3 3 2 2 2 3 3 4 5 5 5 6 6 7 7 6 6 7
5 5 7 8 9 11 6 4 6 6 6 3 8 10 8 9 9 4 2 4 4 4 4 4 3 3 3 2 2 3 3 4 4 4 5 5 5 6 7 7 6 7 7 7
11 10 10 8 9 13 7 10 11 9 1 3 6 7 8 9 7 6 5 5 5 5 4 4 4 3 3 2 3 4 5 4 4 4 5 5 6 5 5 6 6 6 6 7
12 11 9 13 12 4 11 11 9 4 5 6 6 6 7 7 8 8 7 7 6 5 5 4 4 4 3 3 3 5 5 4 3 4 5 5 6 5 5 6 6 6 5 6
8 6 7 9 14 11 11 12 11 10 10 9 7 6 7 9 9 8 7 6 6 6 5 4 4 5 5 4 3 5 4 3 3 4 5 5 5 6 5 5 5 5 5 6
9 10 8 12 12 9 12 15 16 13 11 10 10 9 10 10 9 9 8 7 6 6 5 5 5 6 6 4 4 3 3 2 4 5 5 5 5 5 5 5 5 6 6 7
11 13 13 14 10 10 10 9 11 12 13 13 11 11 10 10 11 9 8 7 6 6 5 5 5 6 5 4 4 3 2 3 4 4 5 4 4 4 5 6 6 9 10 12
Wind_Direction
30 60 55 34 37 113 129 157 187 206 29 195 203 237 250 234 231 235 238 238 233 241 272 306 294 30 26 28 12 8 3 351 335 309 289 284 313 316 319 322 321 315 311 305
83 54 15 36 85 107 126 151 205 204 54 202 215 260 256 239 233 241 246 250 245 252 289 316 298 289 289 332 334 335 344 346 333 313 288 283 296 294 300 313 315 316 313 309
76 41 0 86 84 100 76 234 234 236 260 190 247 253 219 216 222 236 242 244 247 247 260 279 305 315 310 313 311 303 322 338 333 304 300 343 329 328 333 328 324 322 318 311
64 20 51 68 33 340 124 331 234 234 229 193 251 266 213 211 222 231 237 239 241 239 254 273 287 296 305 312 322 302 301 327 341 322 296 278 310 304 303 306 310 318 322 320
62 12 19 35 355 327 61 245 231 243 236 242 212 247 249 187 229 230 231 231 238 239 245 257 266 274 291 314 320 315 308 316 335 337 309 274 283 292 303 311 312 314 314 313
63 1 353 346 325 308 159 171 178 204 230 240 221 230 253 197 225 228 215 217 234 245 254 267 280 288 305 329 335 325 329 339 336 306 291 291 295 305 317 323 321 317 315 312
48 46 15 319 231 97 258 230 204 192 212 230 128 231 252 249 233 238 225 222 238 257 269 286 296 302 312 328 335 340 344 344 345 341 332 321 311 308 307 312 311 316 319 322
69 31 17 357 340 302 196 281 306 281 261 318 188 238 245 213 286 262 257 245 242 251 269 287 297 305 310 322 327 337 347 345 347 341 334 330 323 313 312 317 317 316 315 320
167 16 20 353 341 297 162 161 360 92 84 267 247 258 269 215 232 224 234 249 246 253 258 271 293 306 314 320 320 321 328 340 343 337 333 331 330 324 320 320 315 315 319 323
277 201 299 320 210 53 5 148 169 189 243 265 267 246 237 212 219 211 232 254 267 267 267 276 296 307 312 313 316 321 320 323 331 336 335 329 328 325 322 321 322 320 321 324
303 178 209 213 228 210 154 165 168 152 263 256 276 266 207 214 208 212 234 262 279 274 278 282 291 295 305 323 323 321 322 322 327 328 329 332 334 332 328 325 328 327 323 322
8 197 232 238 3 311 244 214 197 218 207 228 264 275 110 216 217 222 251 269 272 267 269 275 284 300 312 315 315 316 323 323 323 324 326 326 329 330 332 329 328 327 323 323
150 163 211 190 177 176 232 217 216 211 169 204 226 255 112 198 231 247 262 271 267 267 271 275 278 285 295 301 307 315 318 317 320 324 323 326 330 332 329 326 324 323 320 319
119 200 231 251 305 178 222 219 207 198 213 221 230 251 256 256 263 267 267 269 270 267 263 267 272 280 288 295 302 309 314 321 320 318 316 319 323 323 323 324 324 321 318 314
157 230 250 277 286 269 248 237 216 217 224 232 243 249 264 269 270 271 270 267 261 262 259 262 269 275 281 286 291 297 302 310 312 312 311 313 316 319 322 323 322 320 317 313
173 210 254 284 283 281 270 250 233 233 237 242 256 268 269 276 266 261 255 247 253 258 260 262 264 265 268 269 275 284 292 298 298 296 298 303 308 313 314 313 313 312 311 312
172 158 197 265 326 311 265 238 216 215 219 222 235 245 256 254 249 255 255 248 250 255 258 260 260 259 261 261 264 269 277 286 286 286 291 299 303 304 305 307 306 305 307 307
164 153 191 282 335 245 248 121 209 220 237 228 240 253 256 260 272 273 264 257 255 254 256 260 257 255 254 255 258 265 272 275 281 290 296 302 302 298 300 301 300 301 301 298
189 167 172 204 253 273 285 230 193 208 253 231 232 248 258 265 280 268 251 239 240 246 251 251 246 243 240 242 250 254 264 273 283 290 295 300 299 297 298 297 297 297 296 295
162 176 186 192 234 248 247 146 160 174 262 233 215 232 243 211 246 269 229 218 230 240 243 238 236 235 236 245 238 241 263 275 280 287 291 294 293 290 290 291 292 293 291 290
169 188 208 215 238 261 251 157 160 202 251 192 200 216 213 209 236 270 208 219 227 231 231 228 226 229 240 242 223 241 260 269 281 289 290 290 290 286 286 289 290 292 291 291
181 182 196 192 219 249 181 160 198 227 263 203 209 213 216 229 246 254 248 243 240 238 232 222 223 237 245 234 225 246 262 276 288 289 286 287 288 286 286 288 290 290 290 290
209 201 192 200 220 252 175 203 225 245 239 234 230 229 227 236 247 252 253 247 242 237 234 226 224 240 248 239 231 246 266 281 284 283 281 284 286 283 284 284 287 289 286 284
223 212 216 240 251 247 234 242 247 242 244 249 243 240 233 241 249 252 251 246 239 234 231 225 220 234 249 251 246 252 269 278 267 271 280 284 285 287 288 284 281 283 284 284
206 184 212 243 257 267 248 237 241 244 244 246 245 240 238 241 247 247 247 243 237 233 227 219 223 233 244 249 255 263 270 265 263 270 276 281 281 285 289 285 279 280 276 279
194 194 203 233 222 219 241 230 224 230 237 237 240 244 239 233 239 241 241 238 232 228 223 224 230 237 246 249 259 265 259 250 257 268 274 277 281 284 285 290 292 285 284 289